Het weer levert geen direct gevaar op.    Er zijn geen waarschuwingen afgegeven.


Onweer radar Meer informatie blitzortung!


Regen radar Meer informatie rain snow radar


Bezoek onze andere website:

Template documentation
and downloads

And another site



Select another period ( hide this area )

Eenheden Periode Custom range Directly to
Metrisch Engels Beide
Dagelijkse Wekelijkse Maandelijkse Jaarlijkse
use both date-selectors for a custom range
previous Dag
With this date

WeatherUnderground graphs for this period ( click here )


Dagelijkse Samenvatting Vrijdag 19 oktober 2018
Tijd Temp. ( °C ) Dew pt. ( °C ) Wind ( km/h ) van Windvlaag ( km/h ) Luchtdruk ( hPa ) Humid.( % ) Rainrate ( cm )
Hoog14,3 9,2 16,7 ONO ( 500/801 ) 11,9 1026,4 94 -
Gemiddeld8,7 6,6 4,3 ONO #93/187 2,4 1025,9 87 -
Laag4,6 3,4 -   0,0 1024,8 68 -
Dagelijkse Tabular details for Vrijdag 19 oktober 2018
Tijd Temp. ( °C ) Dew pt. ( °C ) Wind ( km/h ) van Windvlaag ( km/h ) Luchtdruk ( hPa ) Humid.( % ) Rainrate ( cm )
00:04 10,2 8,7 5,6 ONO 3,5 1026,4 90 -
00:09 10,2 8,4 5,6 ONO 2,6 1026,3 89 -
00:14 10,1 8,3 5,6 ONO 3,2 1026,4 89 -
00:19 10,0 8,4 3,7 ONO 1,9 1026,3 90 -
00:24 9,9 8,3 3,7 ONO 2,9 1026,3 90 -
00:29 9,9 8,3 5,6 ONO 1,9 1026,2 90 -
00:34 9,8 8,3 5,6 ONO 2,4 1026,2 90 -
00:39 9,8 8,2 3,7 ONO 2,1 1026,3 90 -
00:44 9,7 8,2 3,7 ONO 1,8 1026,2 90 -
00:49 9,7 8,1 3,7 ONO 1,9 1026,3 90 -
00:54 9,6 8,1 5,6 ONO 1,9 1026,2 90 -
00:59 9,6 8,0 3,7 ONO 1,9 1026,2 90 -
01:04 9,5 7,9 5,6 ONO 1,4 1026,2 90 -
01:09 9,5 7,9 5,6 ONO 2,1 1026,2 90 -
01:14 9,5 7,9 3,7 ONO 1,4 1026,2 90 -
01:19 9,4 7,9 1,9 ONO 0,2 1026,2 90 -
01:24 9,3 7,8   Kalm   1026,2 90 -
01:29 9,2 7,6   Kalm   1026,3 90 -
01:34 9,1 7,5   Kalm   1026,3 90 -
01:39 8,9 7,3   Kalm 0,2 1026,3 90 -
01:44 8,7 7,2 1,9 ONO 0,5 1026,2 90 -
01:49 8,7 7,1 1,9 ONO 1,1 1026,2 90 -
01:54 8,7 7,3 3,7 ONO 1,8 1026,2 91 -
01:59 8,8 7,4 1,9 ONO 0,5 1026,1 91 -
02:04 8,8 7,4 1,9 ONO 1,1 1026,0 91 -
02:09 8,8 7,4 1,9 ONO 0,8 1026,0 91 -
02:14 8,7 7,3   Kalm   1026,1 91 -
02:19 8,6 7,2   Kalm   1026,1 91 -
02:24 8,4 6,8   Kalm   1026,1 90 -
02:29 8,2 6,6   Kalm   1026,1 90 -
02:34 8,0 6,4   Kalm   1026,1 90 -
02:39 7,8 6,3   Kalm   1026,1 90 -
02:44 7,7 6,1   Kalm   1026,1 90 -
02:49 7,5 5,9   Kalm   1026,1 90 -
02:54 7,4 5,8   Kalm   1026,1 90 -
02:59 7,3 5,7   Kalm   1026,1 90 -
03:04 7,2 5,6   Kalm   1026,0 90 -
03:09 7,1 5,5   Kalm   1026,0 90 -
03:14 6,9 5,4   Kalm   1026,0 90 -
03:19 6,8 5,3   Kalm   1026,0 90 -
03:24 6,7 5,2   Kalm   1026,0 90 -
03:29 6,6 5,1   Kalm   1025,9 90 -
03:34 6,5 5,1   Kalm   1025,9 91 -
03:39 6,4 5,1   Kalm   1025,9 91 -
03:44 6,3 4,9   Kalm   1025,9 91 -
03:49 6,2 4,9   Kalm   1026,0 91 -
03:54 6,2 4,8   Kalm   1026,0 91 -
03:59 6,1 4,8   Kalm   1026,0 91 -
04:04 6,1 4,7 1,9 ONO   1025,9 91 -
04:09 6,1 4,7 3,7 ONO 0,3 1026,0 91 -
04:14 6,1 4,8 3,2 ONO 1,3 1025,9 91 -
04:19 6,2 4,9 1,6 ONO 0,2 1026,0 92 -
04:24 6,3 5,1 3,7 ONO 1,8 1026,0 92 -
04:29 6,6 5,3 1,9 ONO 0,5 1026,0 92 -
04:34 6,7 5,4 1,9 ONO 0,3 1025,9 92 -
04:39 6,6 5,4   Kalm   1026,0 92 -
04:44 6,5 5,3   Kalm   1026,0 92 -
04:49 6,4 5,2   Kalm   1026,0 92 -
04:54 6,3 5,1   Kalm   1026,0 92 -
04:59 6,2 4,9   Kalm   1026,0 92 -
05:04 6,1 4,8   Kalm   1026,0 92 -
05:09 5,9 4,7   Kalm   1026,0 92 -
05:14 5,9 4,6   Kalm   1025,9 91 -
05:19 5,8 4,6   Kalm   1025,9 92 -
05:24 5,7 4,4   Kalm   1025,9 92 -
05:29 5,6 4,3   Kalm   1025,9 92 -
05:34 5,5 4,3   Kalm   1025,9 92 -
05:39 5,4 4,2   Kalm   1025,9 92 -
05:44 5,3 4,1   Kalm   1025,8 92 -
05:49 5,2 4,0   Kalm   1025,8 92 -
05:54 5,1 3,9   Kalm   1025,8 92 -
05:59 5,0 3,8   Kalm   1025,8 92 -
06:04 4,9 3,8   Kalm   1025,7 92 -
06:09 4,9 3,7   Kalm   1025,8 92 -
06:14 4,8 3,6   Kalm   1025,8 92 -
06:19 4,8 3,6   Kalm   1025,7 92 -
06:24 4,7 3,6   Kalm   1025,8 92 -
06:29 4,7 3,5   Kalm   1025,9 92 -
06:34 4,7 3,5   Kalm   1025,8 92 -
06:39 4,7 3,5   Kalm   1025,9 92 -
06:44 4,6 3,4 1,9 ONO 1,0 1025,8 92 -
06:49 4,7 3,7 3,7 ONO 1,0 1025,8 93 -
06:54 5,0 3,9 3,7 ONO 1,6 1025,9 93 -
06:59 5,3 4,3 1,9 ONO 1,0 1026,1 93 -
07:04 5,4 4,4 1,9 ONO   1026,1 93 -
07:09 5,4 4,3   Kalm   1026,1 93 -
07:14 5,3 4,1   Kalm   1025,9 92 -
07:19 5,2 4,2   Kalm   1025,9 93 -
07:24 5,2 4,1   Kalm   1026,0 93 -
07:29 5,0 3,8   Kalm   1026,0 92 -
07:34 4,9 3,7 1,9 ONO 0,6 1026,0 92 -
07:39 4,8 3,8 1,9 ONO 0,6 1026,1 93 -
07:44 4,9 3,8 1,9 ONO 1,1 1026,0 93 -
07:49 5,1 4,0 1,9 ONO 1,3 1026,0 93 -
07:54 5,3 4,2 1,9 ONO 0,5 1026,0 93 -
07:59 5,4 4,3 3,7 ONO 0,8 1025,9 93 -
08:04 5,5 4,4 1,9 ONO 0,6 1025,9 93 -
08:09 5,4 4,4 1,9 ONO 1,0 1026,0 93 -
08:14 5,4 4,3 1,9 ONO 0,6 1026,0 93 -
08:19 5,4 4,4 3,2 ONO 2,1 1026,0 93 -
08:24 5,6 4,7 3,7 ONO 1,3 1026,0 94 -
08:29 5,7 4,6 3,7 ONO 1,1 1026,1 93 -
08:34 5,6 4,6 1,9 ONO 0,8 1026,1 93 -
08:39 5,6 4,5   Kalm 0,2 1026,1 93 -
08:44 5,4 4,4 1,9 ONO 0,6 1026,2 93 -
08:49 5,4 4,3 1,9 ONO 0,2 1026,1 93 -
08:54 5,4 4,4 1,9 ONO 1,0 1026,1 93 -
08:59 5,6 4,7 1,9 ONO 1,3 1026,1 94 -
09:04 5,7 4,8 1,9 ONO 0,2 1026,2 94 -
09:09 5,9 5,0 1,9 ONO 1,0 1026,2 94 -
09:14 6,1 5,2 3,7 ONO 0,8 1026,1 94 -
09:19 6,2 5,3 3,7 ONO 2,1 1026,1 94 -
09:24 6,4 5,5 1,9 ONO 0,6 1026,0 94 -
09:29 6,5 5,6 1,9 ONO 1,4 1026,0 94 -
09:34 6,7 5,8 3,7 ONO 1,6 1026,1 94 -
09:39 6,9 6,0 3,7 ONO 2,6 1026,1 94 -
09:44 7,1 6,2 5,6 ONO 2,3 1026,1 94 -
09:49 7,3 6,4 5,6 ONO 3,7 1026,1 94 -
09:54 7,6 6,7 5,6 NO 4,3 1026,1 94 -
09:59 7,7 6,8 5,6 NO 3,2 1026,1 94 -
10:04 7,9 7,1 5,6 NO 2,6 1026,0 94 -
10:09 8,2 7,3 5,6 NNO 3,9 1026,1 94 -
10:14 8,4 7,6 3,7 NO 2,3 1026,1 94 -
10:19 8,7 7,8 5,6 NO 3,9 1026,0 94 -
10:24 9,0 8,1 5,6 NO 2,9 1026,1 94 -
10:29 9,3 8,4 5,6 NNO 5,1 1026,0 94 -
10:34 9,5 8,4 6,4 NNO 5,1 1025,9 93 -
10:39 9,7 8,7 5,6 ONO 4,8 1025,9 93 -
10:44 9,9 8,7 13,0 ONO 4,2 1025,9 92 -
10:49 10,0 8,6 7,4 ONO 7,1 1025,9 91 -
10:54 10,2 8,6 9,7 ONO 6,4 1025,9 90 -
10:59 10,3 8,6 8,0 ONO 5,0 1025,9 89 -
11:04 10,4 8,5 8,0 ONO 3,9 1025,9 88 -
11:09 10,6 8,7 7,4 Oosten 4,8 1025,9 88 -
11:14 10,7 8,8 13,0 NO 8,5 1026,1 88 -
11:19 10,9 8,8 7,4 NO 4,7 1026,1 87 -
11:24 11,0 8,9 7,4 NO 2,3 1026,0 87 -
11:29 11,1 8,8 13,0 ONO 6,6 1026,0 86 -
11:34 11,2 8,9 7,4 NO 4,2 1026,0 86 -
11:39 11,4 9,2 11,1 ONO 4,2 1025,9 86 -
11:44 11,6 9,2 6,4 ONO 3,7 1026,0 85 -
11:49 11,8 9,0 13,0 OZO 11,9 1026,1 83 -
11:54 11,9 8,7 16,7 ONO 11,1 1026,1 81 -
11:59 12,0 8,4 16,7 ONO 8,4 1026,0 79 -
12:04 12,1 8,6 9,3 ONO 8,2 1026,0 79 -
12:09 12,3 8,7 11,1 ONO 6,0 1025,9 79 -
12:14 12,4 8,7 14,8 ONO 7,9 1025,8 78 -
12:19 12,4 8,5 11,1 NO 5,5 1025,9 77 -
12:24 12,6 8,6 11,1 ONO 9,7 1026,0 77 -
12:29 12,7 8,6 7,4 Oosten 1,9 1026,1 76 -
12:34 12,8 8,7 11,1 NNO 6,1 1026,1 76 -
12:39 12,8 8,5 7,4 ONO 3,4 1026,0 75 -
12:44 12,8 8,7 7,4 Oosten 3,5 1026,1 76 -
12:49 12,9 8,8 7,4 NO 4,2 1026,2 76 -
12:54 12,9 8,6 9,3 ONO 5,6 1026,2 75 -
12:59 12,8 8,5 5,6 Oosten 4,7 1026,1 75 -
13:04 12,8 8,7 8,0 Noorden 5,5 1026,0 76 -
13:09 12,9 8,8 9,3 Oosten 7,1 1025,9 76 -
13:14 12,9 8,8 13,0 NO 4,5 1025,9 76 -
13:19 13,0 8,9 8,0 NO 4,5 1025,7 76 -
13:24 13,1 9,0 9,7 NO 6,6 1025,7 76 -
13:29 13,3 9,1 16,1 NNO 6,8 1025,6 76 -
13:34 13,4 9,1 9,7 ONO 4,8 1025,5 75 -
13:39 13,4 9,1 7,4 ONO 5,0 1025,5 75 -
13:44 13,6 9,0 13,0 ONO 5,3 1025,5 74 -
13:49 13,7 9,1 7,4 NO 6,8 1025,5 74 -
13:54 13,7 9,2 5,6 ONO 4,0 1025,4 74 -
13:59 13,6 8,8 7,4 NO 5,5 1025,5 73 -
14:04 13,5 9,2 9,7 ONO 5,0 1025,5 75 -
14:09 13,6 9,0 14,8 NNO 4,5 1025,5 74 -
14:14 13,5 8,9 5,6 ONO 3,7 1025,5 74 -
14:19 13,3 8,8 5,6 ONO 3,4 1025,5 74 -
14:24 13,2 8,6 7,4 Oosten 3,4 1025,5 74 -
14:29 13,1 8,8 8,0 ONO 7,6 1025,4 75 -
14:34 13,1 9,0 7,4 NO 5,5 1025,6 76 -
14:39 13,2 8,8 7,4 NO 4,8 1025,6 75 -
14:44 13,2 8,9 5,6 NO 2,4 1025,6 75 -
14:49 13,5 8,9 9,3 ONO 6,3 1025,5 74 -
14:54 13,7 9,2 5,6 NO 3,9 1025,3 74 -
14:59 13,9 9,1 9,7 ONO 4,7 1025,3 73 -
15:04 13,9 8,8 13,0 Oosten 3,7 1025,3 71 -
15:09 14,0 8,6 7,4 ONO 5,8 1025,1 70 -
15:14 14,1 8,7 11,1 ONO 6,3 1025,0 70 -
15:19 14,2 8,8 8,0 ONO 7,6 1025,0 70 -
15:24 14,3 8,7 5,6 Noorden 4,5 1024,9 69 -
15:29 14,3 8,4 13,0 ONO 3,9 1024,8 68 -
15:34 14,3 8,9 9,3 ONO 7,2 1024,9 70 -
Dagelijkse Samenvatting Vrijdag 19 oktober 2018
Tijd Temp. ( °C ) Dew pt. ( °C ) Wind ( km/h ) van Windvlaag ( km/h ) Luchtdruk ( hPa ) Humid.( % ) Rainrate ( cm )
Hoog14,3 9,2 16,7 ONO ( 500/801 ) 11,9 1026,4 94 -
Gemiddeld8,7 6,6 4,3 ONO #93/187 2,4 1025,9 87 -
Laag4,6 3,4 -   0,0 1024,8 68 -
Dagelijkse Tabular details for Vrijdag 19 oktober 2018
Tijd Temp. ( °C ) Dew pt. ( °C ) Wind ( km/h ) van Windvlaag ( km/h ) Luchtdruk ( hPa ) Humid.( % ) Rainrate ( cm )
00:04 10,2 8,7 5,6 ONO 3,5 1026,4 90 -
00:09 10,2 8,4 5,6 ONO 2,6 1026,3 89 -
00:14 10,1 8,3 5,6 ONO 3,2 1026,4 89 -
00:19 10,0 8,4 3,7 ONO 1,9 1026,3 90 -
00:24 9,9 8,3 3,7 ONO 2,9 1026,3 90 -
00:29 9,9 8,3 5,6 ONO 1,9 1026,2 90 -
00:34 9,8 8,3 5,6 ONO 2,4 1026,2 90 -
00:39 9,8 8,2 3,7 ONO 2,1 1026,3 90 -
00:44 9,7 8,2 3,7 ONO 1,8 1026,2 90 -
00:49 9,7 8,1 3,7 ONO 1,9 1026,3 90 -
00:54 9,6 8,1 5,6 ONO 1,9 1026,2 90 -
00:59 9,6 8,0 3,7 ONO 1,9 1026,2 90 -
01:04 9,5 7,9 5,6 ONO 1,4 1026,2 90 -
01:09 9,5 7,9 5,6 ONO 2,1 1026,2 90 -
01:14 9,5 7,9 3,7 ONO 1,4 1026,2 90 -
01:19 9,4 7,9 1,9 ONO 0,2 1026,2 90 -
01:24 9,3 7,8   Kalm   1026,2 90 -
01:29 9,2 7,6   Kalm   1026,3 90 -
01:34 9,1 7,5   Kalm   1026,3 90 -
01:39 8,9 7,3   Kalm 0,2 1026,3 90 -
01:44 8,7 7,2 1,9 ONO 0,5 1026,2 90 -
01:49 8,7 7,1 1,9 ONO 1,1 1026,2 90 -
01:54 8,7 7,3 3,7 ONO 1,8 1026,2 91 -
01:59 8,8 7,4 1,9 ONO 0,5 1026,1 91 -
02:04 8,8 7,4 1,9 ONO 1,1 1026,0 91 -
02:09 8,8 7,4 1,9 ONO 0,8 1026,0 91 -
02:14 8,7 7,3   Kalm   1026,1 91 -
02:19 8,6 7,2   Kalm   1026,1 91 -
02:24 8,4 6,8   Kalm   1026,1 90 -
02:29 8,2 6,6   Kalm   1026,1 90 -
02:34 8,0 6,4   Kalm   1026,1 90 -
02:39 7,8 6,3   Kalm   1026,1 90 -
02:44 7,7 6,1   Kalm   1026,1 90 -
02:49 7,5 5,9   Kalm   1026,1 90 -
02:54 7,4 5,8   Kalm   1026,1 90 -
02:59 7,3 5,7   Kalm   1026,1 90 -
03:04 7,2 5,6   Kalm   1026,0 90 -
03:09 7,1 5,5   Kalm   1026,0 90 -
03:14 6,9 5,4   Kalm   1026,0 90 -
03:19 6,8 5,3   Kalm   1026,0 90 -
03:24 6,7 5,2   Kalm   1026,0 90 -
03:29 6,6 5,1   Kalm   1025,9 90 -
03:34 6,5 5,1   Kalm   1025,9 91 -
03:39 6,4 5,1   Kalm   1025,9 91 -
03:44 6,3 4,9   Kalm   1025,9 91 -
03:49 6,2 4,9   Kalm   1026,0 91 -
03:54 6,2 4,8   Kalm   1026,0 91 -
03:59 6,1 4,8   Kalm   1026,0 91 -
04:04 6,1 4,7 1,9 ONO   1025,9 91 -
04:09 6,1 4,7 3,7 ONO 0,3 1026,0 91 -
04:14 6,1 4,8 3,2 ONO 1,3 1025,9 91 -
04:19 6,2 4,9 1,6 ONO 0,2 1026,0 92 -
04:24 6,3 5,1 3,7 ONO 1,8 1026,0 92 -
04:29 6,6 5,3 1,9 ONO 0,5 1026,0 92 -
04:34 6,7 5,4 1,9 ONO 0,3 1025,9 92 -
04:39 6,6 5,4   Kalm   1026,0 92 -
04:44 6,5 5,3   Kalm   1026,0 92 -
04:49 6,4 5,2   Kalm   1026,0 92 -
04:54 6,3 5,1   Kalm   1026,0 92 -
04:59 6,2 4,9   Kalm   1026,0 92 -
05:04 6,1 4,8   Kalm   1026,0 92 -
05:09 5,9 4,7   Kalm   1026,0 92 -
05:14 5,9 4,6   Kalm   1025,9 91 -
05:19 5,8 4,6   Kalm   1025,9 92 -
05:24 5,7 4,4   Kalm   1025,9 92 -
05:29 5,6 4,3   Kalm   1025,9 92 -
05:34 5,5 4,3   Kalm   1025,9 92 -
05:39 5,4 4,2   Kalm   1025,9 92 -
05:44 5,3 4,1   Kalm   1025,8 92 -
05:49 5,2 4,0   Kalm   1025,8 92 -
05:54 5,1 3,9   Kalm   1025,8 92 -
05:59 5,0 3,8   Kalm   1025,8 92 -
06:04 4,9 3,8   Kalm   1025,7 92 -
06:09 4,9 3,7   Kalm   1025,8 92 -
06:14 4,8 3,6   Kalm   1025,8 92 -
06:19 4,8 3,6   Kalm   1025,7 92 -
06:24 4,7 3,6   Kalm   1025,8 92 -
06:29 4,7 3,5   Kalm   1025,9 92 -
06:34 4,7 3,5   Kalm   1025,8 92 -
06:39 4,7 3,5   Kalm   1025,9 92 -
06:44 4,6 3,4 1,9 ONO 1,0 1025,8 92 -
06:49 4,7 3,7 3,7 ONO 1,0 1025,8 93 -
06:54 5,0 3,9 3,7 ONO 1,6 1025,9 93 -
06:59 5,3 4,3 1,9 ONO 1,0 1026,1 93 -
07:04 5,4 4,4 1,9 ONO   1026,1 93 -
07:09 5,4 4,3   Kalm   1026,1 93 -
07:14 5,3 4,1   Kalm   1025,9 92 -
07:19 5,2 4,2   Kalm   1025,9 93 -
07:24 5,2 4,1   Kalm   1026,0 93 -
07:29 5,0 3,8   Kalm   1026,0 92 -
07:34 4,9 3,7 1,9 ONO 0,6 1026,0 92 -
07:39 4,8 3,8 1,9 ONO 0,6 1026,1 93 -
07:44 4,9 3,8 1,9 ONO 1,1 1026,0 93 -
07:49 5,1 4,0 1,9 ONO 1,3 1026,0 93 -
07:54 5,3 4,2 1,9 ONO 0,5 1026,0 93 -
07:59 5,4 4,3 3,7 ONO 0,8 1025,9 93 -
08:04 5,5 4,4 1,9 ONO 0,6 1025,9 93 -
08:09 5,4 4,4 1,9 ONO 1,0 1026,0 93 -
08:14 5,4 4,3 1,9 ONO 0,6 1026,0 93 -
08:19 5,4 4,4 3,2 ONO 2,1 1026,0 93 -
08:24 5,6 4,7 3,7 ONO 1,3 1026,0 94 -
08:29 5,7 4,6 3,7 ONO 1,1 1026,1 93 -
08:34 5,6 4,6 1,9 ONO 0,8 1026,1 93 -
08:39 5,6 4,5   Kalm 0,2 1026,1 93 -
08:44 5,4 4,4 1,9 ONO 0,6 1026,2 93 -
08:49 5,4 4,3 1,9 ONO 0,2 1026,1 93 -
08:54 5,4 4,4 1,9 ONO 1,0 1026,1 93 -
08:59 5,6 4,7 1,9 ONO 1,3 1026,1 94 -
09:04 5,7 4,8 1,9 ONO 0,2 1026,2 94 -
09:09 5,9 5,0 1,9 ONO 1,0 1026,2 94 -
09:14 6,1 5,2 3,7 ONO 0,8 1026,1 94 -
09:19 6,2 5,3 3,7 ONO 2,1 1026,1 94 -
09:24 6,4 5,5 1,9 ONO 0,6 1026,0 94 -
09:29 6,5 5,6 1,9 ONO 1,4 1026,0 94 -
09:34 6,7 5,8 3,7 ONO 1,6 1026,1 94 -
09:39 6,9 6,0 3,7 ONO 2,6 1026,1 94 -
09:44 7,1 6,2 5,6 ONO 2,3 1026,1 94 -
09:49 7,3 6,4 5,6 ONO 3,7 1026,1 94 -
09:54 7,6 6,7 5,6 NO 4,3 1026,1 94 -
09:59 7,7 6,8 5,6 NO 3,2 1026,1 94 -
10:04 7,9 7,1 5,6 NO 2,6 1026,0 94 -
10:09 8,2 7,3 5,6 NNO 3,9 1026,1 94 -
10:14 8,4 7,6 3,7 NO 2,3 1026,1 94 -
10:19 8,7 7,8 5,6 NO 3,9 1026,0 94 -
10:24 9,0 8,1 5,6 NO 2,9 1026,1 94 -
10:29 9,3 8,4 5,6 NNO 5,1 1026,0 94 -
10:34 9,5 8,4 6,4 NNO 5,1 1025,9 93 -
10:39 9,7 8,7 5,6 ONO 4,8 1025,9 93 -
10:44 9,9 8,7 13,0 ONO 4,2 1025,9 92 -
10:49 10,0 8,6 7,4 ONO 7,1 1025,9 91 -
10:54 10,2 8,6 9,7 ONO 6,4 1025,9 90 -
10:59 10,3 8,6 8,0 ONO 5,0 1025,9 89 -
11:04 10,4 8,5 8,0 ONO 3,9 1025,9 88 -
11:09 10,6 8,7 7,4 Oosten 4,8 1025,9 88 -
11:14 10,7 8,8 13,0 NO 8,5 1026,1 88 -
11:19 10,9 8,8 7,4 NO 4,7 1026,1 87 -
11:24 11,0 8,9 7,4 NO 2,3 1026,0 87 -
11:29 11,1 8,8 13,0 ONO 6,6 1026,0 86 -
11:34 11,2 8,9 7,4 NO 4,2 1026,0 86 -
11:39 11,4 9,2 11,1 ONO 4,2 1025,9 86 -
11:44 11,6 9,2 6,4 ONO 3,7 1026,0 85 -
11:49 11,8 9,0 13,0 OZO 11,9 1026,1 83 -
11:54 11,9 8,7 16,7 ONO 11,1 1026,1 81 -
11:59 12,0 8,4 16,7 ONO 8,4 1026,0 79 -
12:04 12,1 8,6 9,3 ONO 8,2 1026,0 79 -
12:09 12,3 8,7 11,1 ONO 6,0 1025,9 79 -
12:14 12,4 8,7 14,8 ONO 7,9 1025,8 78 -
12:19 12,4 8,5 11,1 NO 5,5 1025,9 77 -
12:24 12,6 8,6 11,1 ONO 9,7 1026,0 77 -
12:29 12,7 8,6 7,4 Oosten 1,9 1026,1 76 -
12:34 12,8 8,7 11,1 NNO 6,1 1026,1 76 -
12:39 12,8 8,5 7,4 ONO 3,4 1026,0 75 -
12:44 12,8 8,7 7,4 Oosten 3,5 1026,1 76 -
12:49 12,9 8,8 7,4 NO 4,2 1026,2 76 -
12:54 12,9 8,6 9,3 ONO 5,6 1026,2 75 -
12:59 12,8 8,5 5,6 Oosten 4,7 1026,1 75 -
13:04 12,8 8,7 8,0 Noorden 5,5 1026,0 76 -
13:09 12,9 8,8 9,3 Oosten 7,1 1025,9 76 -
13:14 12,9 8,8 13,0 NO 4,5 1025,9 76 -
13:19 13,0 8,9 8,0 NO 4,5 1025,7 76 -
13:24 13,1 9,0 9,7 NO 6,6 1025,7 76 -
13:29 13,3 9,1 16,1 NNO 6,8 1025,6 76 -
13:34 13,4 9,1 9,7 ONO 4,8 1025,5 75 -
13:39 13,4 9,1 7,4 ONO 5,0 1025,5 75 -
13:44 13,6 9,0 13,0 ONO 5,3 1025,5 74 -
13:49 13,7 9,1 7,4 NO 6,8 1025,5 74 -
13:54 13,7 9,2 5,6 ONO 4,0 1025,4 74 -
13:59 13,6 8,8 7,4 NO 5,5 1025,5 73 -
14:04 13,5 9,2 9,7 ONO 5,0 1025,5 75 -
14:09 13,6 9,0 14,8 NNO 4,5 1025,5 74 -
14:14 13,5 8,9 5,6 ONO 3,7 1025,5 74 -
14:19 13,3 8,8 5,6 ONO 3,4 1025,5 74 -
14:24 13,2 8,6 7,4 Oosten 3,4 1025,5 74 -
14:29 13,1 8,8 8,0 ONO 7,6 1025,4 75 -
14:34 13,1 9,0 7,4 NO 5,5 1025,6 76 -
14:39 13,2 8,8 7,4 NO 4,8 1025,6 75 -
14:44 13,2 8,9 5,6 NO 2,4 1025,6 75 -
14:49 13,5 8,9 9,3 ONO 6,3 1025,5 74 -
14:54 13,7 9,2 5,6 NO 3,9 1025,3 74 -
14:59 13,9 9,1 9,7 ONO 4,7 1025,3 73 -
15:04 13,9 8,8 13,0 Oosten 3,7 1025,3 71 -
15:09 14,0 8,6 7,4 ONO 5,8 1025,1 70 -
15:14 14,1 8,7 11,1 ONO 6,3 1025,0 70 -
15:19 14,2 8,8 8,0 ONO 7,6 1025,0 70 -
15:24 14,3 8,7 5,6 Noorden 4,5 1024,9 69 -
15:29 14,3 8,4 13,0 ONO 3,9 1024,8 68 -
15:34 14,3 8,9 9,3 ONO 7,2 1024,9 70 -

Download your copy of this data-set  here

Our weather-data as stored at Weather Underground. Script ontwikkeld door Jim McMurry. Aangepast voor de template door Leuven-Template.eu

U vindt ons ook hier:

Het Weer Aktueel

European Weather Network

Weather Underground

Benelux Weer Netwerk

Citizen Weather Observer Program (CWOP)

Apparatuur in gebruik:

Weerstation
Davis VP2

Weerprogramma
Weather Display

Weercomputer
My Computer

Webleverancier
WeservIT

Davis VP2

Weather Display

My Computer

WeservIT